Total_Precipitation_Accumulation
0.00 0.00 0.01 0.01 0.01 0.00 0.00 0.00 0.00 0.00 0.00 0.00 0.00 0.00 0.00 0.00 0.00 0.00 0.00 0.00 0.00 0.00
0.01 0.00 0.00 0.00 0.01 0.01 0.00 0.00 0.00 0.00 0.00 0.00 0.00 0.00 0.00 0.00 0.00 0.00 0.00 0.00 0.00 0.00
0.08 0.03 0.01 0.00 0.00 0.00 0.00 0.00 0.00 0.00 0.00 0.00 0.00 0.00 0.00 0.00 0.00 0.00 0.00 0.00 0.00 0.00
0.31 0.11 0.08 0.05 0.00 0.00 0.00 0.00 0.00 0.00 0.00 0.00 0.00 0.00 0.00 0.00 0.00 0.00 0.00 0.00 0.00 0.00
0.65 0.42 0.28 0.17 0.09 0.05 0.00 0.00 0.00 0.00 0.00 0.00 0.00 0.00 0.00 0.00 0.00 0.00 0.00 0.00 0.00 0.00
0.57 0.41 0.26 0.20 0.25 0.35 0.17 0.02 0.03 0.00 0.00 0.00 0.00 0.00 0.00 0.00 0.00 0.00 0.00 0.00 0.00 0.00
0.48 0.36 0.15 0.07 0.08 0.13 0.17 0.13 0.02 0.01 0.00 0.00 0.00 0.00 0.00 0.00 0.00 0.00 0.00 0.00 0.00 0.00
0.25 0.27 0.20 0.23 0.26 0.25 0.23 0.18 0.12 0.06 0.01 0.00 0.00 0.00 0.00 0.00 0.00 0.00 0.00 0.00 0.00 0.00
0.12 0.19 0.19 0.15 0.22 0.35 0.38 0.37 0.37 0.18 0.03 0.01 0.00 0.00 0.00 0.00 0.00 0.00 0.00 0.00 0.00 0.00
0.02 0.10 0.17 0.13 0.11 0.14 0.14 0.17 0.19 0.18 0.15 0.02 0.01 0.00 0.00 0.00 0.00 0.00 0.00 0.00 0.00 0.00
0.00 0.03 0.15 0.25 0.20 0.16 0.23 0.23 0.18 0.14 0.08 0.04 0.01 0.01 0.00 0.00 0.00 0.00 0.00 0.00 0.00 0.00
0.00 0.00 0.02 0.10 0.27 0.28 0.17 0.22 0.31 0.31 0.28 0.14 0.03 0.00 0.00 0.00 0.01 0.00 0.00 0.00 0.00 0.00
0.01 0.00 0.00 0.01 0.05 0.18 0.30 0.25 0.18 0.34 0.41 0.31 0.28 0.16 0.04 0.01 0.01 0.01 0.01 0.01 0.00 0.01
0.02 0.01 0.01 0.00 0.00 0.02 0.09 0.16 0.19 0.21 0.21 0.51 0.61 0.76 0.51 0.21 0.10 0.02 0.01 0.00 0.00 0.00